Regional Weather Roundup
Issued by NWS

Home | Current Version | Previous Version | Graphics & Text | Print | Product List | Glossary On
Versions: 1 2 3 4 5 6 7 8 9 10 11 12 13 14 15 16 17 18 19 20 21 22 23 24 25 26 27 28 29 30 31 32 33 34 35 36 37 38 39 40 41 42 43 44 45 46 47 48 49 50
000
ASUS43 KOAX 281102
RWRNE

WEATHER ROUNDUP FOR NEBRASKA
NATIONAL WEATHER SERVICE OMAHA NE
600 AM CDT SAT MAY 28 2016

NOTES: SATELLITE DATA IS BEING USED TO AUGMENT CLOUD COVER ABOVE
       12000 FEET.
       "FAIR" INDICATES FEW OR NO CLOUDS BELOW 12,000 FEET WITH NO
       SIGNIFICANT WEATHER AND/OR OBSTRUCTIONS TO VISIBILITY.

  * THESE STATIONS DO NOT REPORT WEATHER SUCH AS RAIN...SNOW OR FOG.

NEZ001>004-019>022-054>056-281200-
NEBRASKA PANHANDLE

CITY           SKY/WX    TMP DP  RH WIND       PRES   REMARKS
SCOTTSBLUFF    CLEAR     38  36  92 NW3       29.91S
ALLIANCE       FOG       37  36  96 W6        29.90R VSB 1/2 WCI  32
CHADRON        CLEAR     37  35  92 S3        29.89S
SIDNEY         CLEAR     40  38  93 NW9       29.92S WCI  34
$$

NEZ057>060-069>072-079>082-281200-
SOUTHWEST NEBRASKA

CITY           SKY/WX    TMP DP  RH WIND       PRES   REMARKS
NORTH PLATTE   MOCLDY    49  48  97 NW3       29.85S
IMPERIAL       CLEAR     49  45  86 NW9       29.89R
LEXINGTON      CLOUDY    55  53  92 NW7       29.82R
MCCOOK         PTCLDY    52  51  97 NW9       29.85R
$$

NEZ005>010-023>029-035>040-094-281200-
NORTH CENTRAL NEBRASKA

CITY           SKY/WX    TMP DP  RH WIND       PRES   REMARKS
VALENTINE      MOCLDY    52  49  89 NW8       29.83S
AINSWORTH      MOCLDY    55  52  91 NW8       29.82R
BROKEN BOW     RAIN      55  53  93 W7        29.81S FOG
ORD            LGT RAIN  56  54  93 NW10      29.77S
$$

NEZ041-046>049-061>064-073>077-083>087-281200-
SOUTH CENTRAL NEBRASKA

CITY           SKY/WX    TMP DP  RH WIND       PRES   REMARKS
GRAND ISLAND   PTCLDY    55  53  93 W8        29.77R
HASTINGS       MOCLDY    56  54  93 NW7       29.76R
KEARNEY *      CLOUDY    55  54  94 NW6       29.79R
YORK           CLOUDY    55  55 100 NW3       29.75R
$$

NEZ011>018-030>034-042>045-281200-
NORTHEAST NEBRASKA

CITY           SKY/WX    TMP DP  RH WIND       PRES   REMARKS
NORFOLK        LGT RAIN  58  56  93 W12       29.69F
ALBION         RAIN      56  55  93 NW10      29.74S
BLAIR          CLOUDY    61  60  96 S10       29.73S
FREMONT        CLOUDY    59  57  94 S5        29.74S
TEKAMAH        CLOUDY    61  58  90 SW10      29.73R
$$

NEZ050>053-065>068-078-088>093-281200-
SOUTHEAST NEBRASKA

CITY           SKY/WX    TMP DP  RH WIND       PRES   REMARKS
LINCOLN        PTCLDY    57  55  93 CALM      29.75S
OMAHA EPPLEY   CLOUDY    62  58  86 SW9       29.74R
FALLS CITY     CLOUDY    59  58  96 S3        29.75R
PLATTSMOUTH    CLOUDY    62  61  98 S9        29.75S
$$

NEZ044-045-051>053-067-281200-
OMAHA AREA

CITY           SKY/WX    TMP DP  RH WIND       PRES   REMARKS
OMAHA EPPLEY   CLOUDY    62  58  86 SW9       29.74R
BLAIR          CLOUDY    61  60  96 S10       29.73S
FREMONT        CLOUDY    59  57  94 S5        29.74S
OFFUTT AFB     PTCLDY    61  60  97 S9        29.74R
PLATTSMOUTH    CLOUDY    62  61  98 S9        29.75S
$$




USA.gov is the U.S. government's official web portal to all federal, state and local government web resources and services.